Vorticity
11 6 6 4 8 11 11 13 9 10 15 7 8 16 15 9 11 12 11 12 12 12 10 11 12 13 12 15 15 13 13 12 12 14 13 14 16 14 14 10 12 12 5 15 -18 4 11 20 24 7 19 5 8 14
15 21 12 8 13 14 18 16 12 9 9 10 10 9 10 12 14 15 17 15 14 12 15 12 12 13 16 12 11 12 11 10 12 11 11 13 15 15 12 11 11 4 15 29 -0 -5 27 9 21 5 20 8 14 13
12 8 -2 3 2 3 11 7 9 5 9 16 11 10 13 11 11 12 10 11 12 10 10 11 13 3 6 8 3 4 9 11 13 10 8 8 9 10 10 13 14 23 17 36 -19 5 18 18 8 9 9 13 -5 8
14 11 12 12 10 10 12 8 10 5 4 8 4 9 5 6 7 9 9 8 13 18 19 17 25 19 13 14 15 17 15 11 12 9 9 10 9 13 13 21 29 15 16 13 8 22 21 17 10 12 18 7 2 3
11 8 8 8 11 8 5 5 6 -1 2 8 7 7 5 9 11 16 24 26 17 10 8 8 9 12 18 21 21 10 20 22 25 27 22 16 13 16 23 5 30 16 14 5 19 -4 29 3 5 10 5 3 1 -3
23 20 13 10 8 10 11 11 11 12 10 9 11 21 26 18 19 17 5 0 3 2 12 51 47 52 38 47 60 38 26 25 16 10 13 26 19 32 30 -21 0 16 21 13 9 4 13 10 8 7 5 2 2 1
15 22 23 25 21 13 12 14 20 24 25 22 12 14 27 13 7 26 26 41 19 25 22 22 18 8 25 22 27 19 7 41 25 19 23 29 19 25 5 18 9 16 -4 35 21 12 15 8 4 6 8 5 6 5
10 12 14 14 13 15 17 19 18 19 7 -1 26 22 4 3 10 5 24 17 13 7 13 9 10 10 1 2 25 23 16 13 16 13 27 18 -6 6 12 -7 12 1 -7 36 19 17 14 12 9 6 6 5 -1 1
13 11 14 8 8 9 8 5 8 9 13 26 11 2 5 4 -4 15 8 -3 1 19 13 28 12 13 11 18 25 27 28 18 20 9 9 10 13 22 22 3 24 30 22 14 -7 -4 5 9 5 9 -7 14 37 51
14 12 20 13 24 27 44 57 6 -4 22 10 9 6 6 -4 14 7 -2 16 13 19 1 5 16 6 16 23 14 14 15 13 3 3 -8 13 3 38 26 5 -7 -4 3 1 9 1 15 2 4 22 34 19 4 5
14 21 17 20 29 24 33 64 58 13 11 4 -3 -3 9 17 17 22 19 3 5 2 7 13 7 5 9 16 18 13 0 4 30 32 22 20 0 4 6 6 2 7 7 11 9 18 9 7 25 13 8 13 15 10
10 9 21 18 12 25 22 17 13 5 0 6 6 11 10 18 13 16 3 1 1 12 15 17 13 10 10 4 1 5 18 12 3 3 2 4 4 1 -0 14 11 17 19 18 31 37 20 10 11 8 7 11 6 9
12 13 11 8 6 4 6 13 13 10 8 15 3 23 26 10 1 1 5 6 0 7 14 4 5 7 15 7 5 3 -0 2 1 -3 -1 5 19 16 17 8 2 15 20 21 25 25 25 13 7 9 7 3 11 24
9 8 6 6 7 12 1 6 8 12 10 15 22 -5 2 2 2 -1 3 6 6 1 8 18 20 22 18 15 6 1 11 26 24 18 10 27 28 13 6 5 6 14 14 8 13 13 2 5 7 4 3 19 23 21
4 5 8 7 6 2 4 8 3 -1 2 -1 1 2 -9 6 5 1 9 2 13 3 -1 3 7 10 11 16 14 14 21 18 6 13 17 15 14 19 11 8 14 12 13 16 12 4 10 7 9 4 24 22 12 15
32 27 0 5 -2 3 7 6 3 -12 5 -1 10 20 25 10 12 12 4 14 21 0 10 4 4 13 16 -2 11 24 19 4 6 6 9 6 6 8 9 8 6 6 4 5 6 5 6 7 8 18 19 11 13 9
3 7 14 24 28 35 37 36 25 22 21 17 16 17 12 14 16 21 28 24 6 11 13 22 22 26 -4 14 8 2 6 8 4 6 10 6 3 7 9 11 5 5 3 5 0 5 14 17 14 17 11 11 13 11
4 3 5 8 9 4 6 4 8 5 9 12 17 7 9 10 7 13 15 18 10 13 -3 15 18 17 4 12 9 11 11 12 11 9 11 9 9 7 11 12 9 10 10 12 20 21 20 15 14 9 17 11 10 11
17 5 2 3 3 2 4 4 2 3 5 5 12 11 9 4 11 11 10 15 15 28 4 4 11 9 7 10 3 10 13 14 15 17 16 13 10 9 7 10 14 16 17 21 17 16 9 9 17 18 15 5 7 11
3 18 21 9 4 6 6 5 4 3 4 3 6 4 9 10 4 4 8 9 11 10 12 10 6 6 5 9 9 11 11 10 14 12 14 13 14 15 15 16 17 15 8 9 11 8 13 15 15 15 12 5 5 10
9 5 3 19 19 12 4 6 5 5 4 2 3 4 6 7 6 9 3 2 4 6 9 10 8 7 7 8 10 6 4 7 13 18 14 12 12 14 13 15 14 8 8 9 16 20 16 10 14 15 10 8 14 3
12 13 14 3 10 15 14 13 10 10 5 6 1 6 2 3 5 4 2 2 6 6 5 5 6 8 8 7 8 7 7 7 11 17 16 14 10 14 14 19 7 10 8 10 17 18 10 7 8 10 11 13 9 5
8 10 13 15 13 2 8 18 18 18 20 21 19 22 21 11 3 4 4 5 9 3 5 7 3 3 7 8 7 8 6 8 8 16 17 14 12 11 16 19 7 7 9 13 15 16 11 8 7 10 12 11 6 10
17 13 11 10 10 15 18 2 6 14 16 13 12 16 21 23 22 17 10 8 4 8 12 8 7 -1 1 5 7 9 8 7 10 10 15 15 11 11 17 15 9 8 11 16 15 16 15 10 8 10 15 11 7 12
9 12 21 20 16 11 10 16 16 0 2 6 11 12 13 15 17 20 21 22 21 14 11 17 10 7 10 7 6 8 8 9 13 11 14 13 10 9 15 14 10 8 11 14 15 16 15 14 11 13 11 8 10 9
9 5 13 21 24 21 18 10 7 18 15 5 2 3 4 8 10 13 15 19 21 21 18 16 14 14 12 8 8 5 12 8 11 16 10 14 10 10 9 14 12 9 8 11 12 13 14 13 12 11 9 8 7 6
14 6 3 15 18 18 19 17 13 8 6 11 16 15 11 7 5 3 5 8 12 15 17 18 16 14 15 17 15 11 11 10 14 18 12 10 14 10 10 9 12 13 10 9 12 10 10 10 9 8 7 8 7 8
5 6 16 18 16 15 17 18 18 20 16 11 7 8 6 10 16 18 16 13 10 7 7 9 11 14 15 17 17 13 12 11 12 16 16 10 11 12 12 14 13 13 12 11 10 11 11 10 10 9 8 9 8 8
24 24 23 19 20 21 21 18 9 9 13 13 13 13 14 13 14 13 10 11 16 20 16 9 6 6 9 12 14 14 13 11 9 8 10 14 13 11 11 12 12 14 14 12 11 11 11 12 11 11 11 9 10 11
10 12 13 16 15 15 16 21 22 18 14 12 11 11 10 11 10 10 12 13 11 9 10 15 22 21 13 7 7 10 12 11 11 10 8 8 9 12 12 10 9 10 11 11 12 12 11 11 11 11 11 11 10 10
9 12 15 17 18 17 13 11 10 11 11 11 12 14 15 15 15 15 14 12 10 8 8 9 10 6 12 24 21 11 7 8 12 11 10 10 11 11 10 10 10 9 9 10 11 11 11 11 10 10 10 10 10 12
12 -1 6 10 13 14 19 22 26 27 26 23 19 16 15 15 17 19 19 18 18 21 26 25 16 8 9 11 6 21 27 16 10 8 11 12 10 11 11 11 11 11 10 9 10 10 10 10 9 9 10 12 12 12
9 8 4 -2 -1 -2 3 10 16 10 16 15 13 10 11 9 11 14 15 14 10 12 17 19 18 22 23 15 9 11 12 17 23 20 13 10 9 11 12 12 12 11 10 10 9 9 9 10 11 13 13 14 13 14
Height
5391 5394 5396 5400 5402 5405 5409 5412 5416 5420 5425 5429 5433 5436 5439 5443 5447 5450 5453 5454 5459 5462 5465 5467 5468 5471 5472 5474 5476 5476 5478 5480 5481 5483 5486 5489 5494 5496 5501 5508 5508 5511 5512 5516 5515 5516 5516 5522 5524 5526 5529 5528 5529 5529
5387 5389 5392 5396 5399 5401 5405 5408 5412 5416 5419 5423 5426 5429 5432 5436 5439 5442 5444 5445 5447 5451 5457 5456 5459 5461 5461 5460 5461 5464 5468 5468 5470 5473 5476 5477 5483 5487 5491 5495 5498 5500 5502 5505 5507 5510 5511 5512 5514 5516 5519 5521 5522 5522
5382 5385 5388 5391 5394 5397 5400 5404 5407 5411 5414 5418 5421 5424 5426 5428 5430 5433 5435 5436 5437 5440 5445 5448 5451 5448 5448 5448 5447 5451 5456 5459 5460 5461 5463 5467 5473 5478 5481 5485 5487 5488 5491 5493 5496 5503 5503 5505 5507 5508 5513 5516 5515 5516
5377 5379 5383 5386 5389 5392 5396 5399 5402 5406 5409 5412 5415 5417 5419 5421 5422 5424 5426 5428 5429 5430 5433 5440 5437 5436 5432 5432 5434 5439 5444 5446 5449 5450 5452 5458 5464 5468 5471 5473 5474 5479 5482 5486 5490 5493 5495 5497 5500 5503 5506 5508 5509 5510
5370 5373 5376 5380 5383 5387 5390 5394 5397 5401 5403 5406 5409 5411 5413 5415 5416 5417 5419 5421 5422 5423 5424 5425 5425 5426 5418 5419 5422 5425 5429 5434 5437 5439 5444 5449 5454 5457 5461 5464 5468 5473 5477 5480 5484 5487 5488 5490 5492 5496 5498 5500 5501 5500
5362 5365 5369 5373 5376 5380 5384 5387 5391 5394 5397 5400 5403 5405 5407 5409 5411 5413 5416 5418 5417 5416 5415 5413 5413 5412 5411 5410 5411 5417 5421 5424 5428 5431 5434 5438 5444 5449 5453 5457 5463 5466 5468 5472 5476 5480 5481 5484 5486 5489 5491 5492 5492 5492
5357 5360 5363 5366 5369 5373 5377 5380 5384 5388 5391 5395 5398 5400 5403 5406 5408 5409 5411 5410 5411 5411 5412 5412 5412 5412 5411 5411 5412 5413 5415 5417 5420 5423 5427 5435 5441 5442 5449 5454 5458 5460 5462 5463 5468 5471 5474 5477 5480 5482 5484 5484 5483 5482
5353 5356 5359 5362 5365 5368 5371 5375 5380 5384 5388 5392 5394 5398 5401 5404 5406 5408 5408 5409 5409 5410 5410 5410 5411 5410 5409 5408 5407 5409 5410 5412 5416 5422 5428 5434 5438 5442 5446 5450 5452 5455 5457 5460 5463 5466 5468 5472 5475 5476 5476 5475 5472 5468
5351 5354 5357 5359 5361 5363 5366 5371 5377 5382 5386 5389 5393 5397 5400 5402 5406 5408 5408 5408 5409 5411 5409 5409 5409 5410 5409 5406 5406 5407 5409 5414 5419 5424 5428 5433 5437 5440 5444 5447 5448 5452 5455 5458 5461 5462 5463 5465 5467 5467 5467 5463 5459 5455
5351 5354 5355 5355 5356 5356 5356 5359 5370 5379 5384 5388 5393 5397 5399 5402 5405 5406 5408 5408 5409 5409 5408 5408 5409 5409 5410 5410 5410 5412 5414 5417 5421 5427 5429 5432 5435 5438 5442 5444 5448 5450 5453 5456 5457 5457 5457 5457 5458 5457 5455 5454 5453 5450
5353 5355 5356 5356 5355 5355 5354 5353 5361 5376 5383 5390 5394 5396 5398 5400 5403 5405 5407 5408 5410 5411 5411 5411 5412 5412 5413 5413 5414 5416 5418 5420 5422 5426 5429 5431 5433 5436 5439 5443 5445 5447 5447 5447 5447 5446 5446 5447 5447 5448 5449 5448 5446 5445
5358 5360 5361 5361 5361 5362 5364 5367 5374 5381 5387 5391 5393 5396 5398 5400 5402 5405 5407 5409 5411 5411 5412 5412 5413 5414 5415 5416 5417 5418 5420 5422 5423 5426 5428 5430 5434 5435 5436 5437 5438 5439 5439 5438 5435 5433 5436 5440 5442 5440 5441 5443 5442 5441
5364 5365 5367 5368 5369 5371 5373 5377 5380 5384 5387 5390 5393 5396 5398 5401 5402 5405 5406 5408 5408 5410 5411 5412 5413 5414 5415 5416 5418 5419 5420 5422 5424 5425 5426 5427 5428 5429 5430 5431 5432 5432 5432 5430 5429 5430 5433 5436 5436 5435 5437 5437 5436 5434
5370 5371 5372 5373 5375 5376 5379 5381 5384 5386 5389 5392 5394 5397 5399 5400 5402 5404 5405 5406 5406 5407 5408 5409 5410 5411 5412 5413 5414 5416 5417 5416 5417 5418 5420 5421 5422 5424 5425 5426 5426 5426 5426 5429 5430 5430 5431 5432 5432 5432 5432 5431 5430 5430
5372 5374 5375 5376 5378 5380 5382 5384 5386 5388 5391 5393 5395 5396 5397 5398 5399 5401 5403 5404 5405 5406 5406 5406 5407 5408 5408 5409 5410 5411 5411 5412 5412 5414 5415 5417 5418 5419 5420 5421 5421 5420 5423 5425 5427 5428 5429 5429 5429 5428 5427 5427 5427 5427
5371 5373 5374 5376 5378 5380 5382 5384 5386 5388 5390 5391 5392 5393 5393 5394 5394 5396 5397 5398 5400 5402 5402 5404 5404 5404 5406 5407 5408 5407 5408 5410 5411 5412 5413 5414 5415 5415 5417 5417 5417 5417 5420 5422 5424 5424 5424 5424 5424 5424 5424 5424 5425 5425
5373 5374 5374 5375 5376 5377 5378 5380 5383 5385 5386 5387 5389 5389 5390 5391 5391 5391 5391 5393 5396 5398 5400 5400 5402 5403 5405 5405 5405 5405 5407 5408 5409 5410 5410 5411 5412 5412 5413 5413 5414 5415 5416 5418 5418 5419 5419 5419 5419 5420 5421 5421 5422 5422
5371 5372 5374 5375 5376 5377 5378 5380 5381 5383 5384 5385 5387 5388 5389 5389 5390 5390 5391 5392 5394 5396 5397 5399 5400 5401 5403 5403 5404 5405 5405 5405 5406 5406 5406 5407 5407 5408 5409 5410 5410 5411 5411 5412 5412 5412 5412 5413 5415 5416 5417 5418 5418 5419
5366 5368 5370 5372 5373 5375 5376 5378 5379 5381 5382 5383 5384 5385 5386 5388 5388 5389 5390 5391 5392 5394 5395 5397 5398 5399 5400 5401 5402 5402 5402 5401 5401 5401 5402 5402 5403 5404 5404 5405 5405 5406 5406 5406 5407 5408 5409 5410 5410 5411 5413 5414 5414 5415
5360 5361 5363 5365 5367 5369 5371 5373 5375 5377 5378 5380 5381 5382 5383 5384 5385 5386 5387 5388 5390 5391 5392 5393 5394 5395 5396 5397 5398 5398 5398 5398 5398 5397 5397 5397 5397 5398 5399 5399 5400 5401 5402 5403 5403 5404 5404 5405 5406 5407 5408 5410 5410 5410
5353 5354 5356 5357 5359 5361 5363 5366 5368 5370 5373 5374 5375 5376 5378 5380 5381 5382 5384 5385 5387 5388 5389 5390 5391 5392 5392 5393 5394 5394 5394 5394 5393 5393 5393 5393 5393 5393 5394 5395 5396 5397 5398 5398 5398 5399 5400 5401 5402 5403 5404 5405 5406 5406
5343 5346 5348 5349 5351 5352 5355 5357 5360 5362 5364 5366 5368 5368 5369 5372 5373 5376 5378 5380 5381 5382 5384 5385 5386 5387 5388 5389 5389 5389 5389 5389 5388 5388 5388 5388 5388 5388 5389 5389 5391 5392 5393 5393 5394 5394 5396 5397 5398 5400 5400 5401 5402 5402
5333 5336 5338 5340 5342 5345 5349 5350 5352 5353 5354 5357 5358 5359 5361 5363 5365 5367 5369 5372 5374 5374 5376 5378 5380 5381 5382 5382 5383 5384 5384 5384 5383 5383 5383 5383 5383 5383 5384 5384 5386 5387 5388 5388 5389 5390 5391 5393 5394 5395 5396 5397 5398 5398
5325 5326 5329 5330 5334 5337 5341 5343 5344 5345 5346 5348 5349 5350 5352 5354 5356 5358 5361 5362 5363 5365 5367 5370 5372 5374 5375 5376 5377 5377 5377 5378 5378 5378 5378 5378 5378 5378 5379 5380 5381 5382 5383 5383 5384 5385 5386 5388 5389 5390 5391 5392 5393 5394
5317 5319 5321 5322 5325 5329 5332 5334 5336 5338 5340 5340 5342 5343 5345 5345 5347 5349 5350 5350 5353 5356 5358 5361 5363 5365 5366 5368 5369 5370 5370 5371 5371 5371 5372 5372 5373 5373 5374 5375 5376 5377 5378 5378 5379 5380 5381 5383 5384 5385 5386 5387 5388 5389
5309 5311 5313 5314 5317 5320 5323 5325 5327 5329 5331 5332 5334 5336 5337 5339 5341 5342 5343 5343 5345 5346 5348 5350 5353 5355 5357 5358 5360 5361 5362 5363 5364 5364 5365 5366 5367 5367 5368 5369 5370 5372 5372 5373 5374 5375 5376 5377 5379 5380 5381 5382 5383 5383
5301 5303 5305 5306 5307 5309 5311 5314 5316 5318 5321 5323 5325 5328 5330 5332 5334 5335 5336 5337 5338 5339 5340 5341 5343 5345 5346 5348 5350 5351 5353 5354 5355 5356 5357 5358 5359 5361 5362 5363 5364 5366 5367 5368 5369 5370 5371 5372 5373 5374 5375 5376 5376 5377
5294 5295 5296 5297 5299 5301 5302 5305 5307 5310 5313 5315 5318 5320 5322 5324 5325 5326 5327 5329 5331 5332 5332 5333 5334 5336 5337 5338 5340 5342 5344 5345 5346 5348 5349 5350 5352 5353 5355 5356 5357 5359 5360 5361 5362 5364 5365 5366 5367 5368 5369 5369 5370 5370
5286 5287 5288 5290 5292 5294 5296 5298 5300 5303 5305 5307 5310 5312 5314 5315 5316 5317 5318 5319 5321 5321 5323 5325 5327 5328 5328 5330 5331 5333 5334 5336 5338 5340 5341 5342 5344 5346 5347 5349 5350 5351 5352 5354 5355 5356 5358 5359 5359 5360 5361 5362 5362 5362
5282 5283 5285 5285 5286 5288 5290 5292 5294 5296 5298 5300 5302 5304 5306 5306 5307 5308 5309 5310 5312 5313 5314 5315 5317 5319 5320 5321 5322 5324 5326 5327 5329 5331 5332 5334 5336 5338 5339 5341 5342 5343 5344 5346 5347 5348 5350 5351 5352 5352 5353 5354 5354 5354
5277 5278 5280 5281 5282 5284 5285 5286 5288 5290 5291 5292 5294 5296 5297 5298 5298 5299 5300 5301 5303 5304 5305 5306 5307 5309 5310 5311 5312 5314 5316 5318 5320 5321 5323 5325 5326 5328 5330 5332 5333 5335 5336 5338 5339 5340 5341 5342 5343 5344 5345 5346 5346 5346
5271 5271 5274 5276 5278 5278 5279 5281 5282 5284 5285 5286 5287 5289 5290 5290 5290 5291 5292 5292 5293 5293 5294 5295 5296 5298 5300 5301 5302 5303 5305 5307 5309 5311 5313 5315 5317 5319 5321 5322 5324 5326 5327 5329 5330 5331 5333 5334 5335 5336 5336 5337 5337 5338
5265 5266 5267 5269 5271 5273 5275 5277 5278 5278 5279 5279 5280 5281 5282 5283 5284 5285 5285 5285 5285 5285 5285 5286 5286 5287 5288 5290 5291 5293 5295 5296 5298 5300 5302 5304 5306 5308 5310 5312 5314 5316 5318 5319 5321 5322 5323 5324 5325 5327 5327 5328 5329 5329